| time (UTC) | temp F | wind direction | speed knots | gust knots | rain 1hr in | rain 24hr in | rain mn in | humidity % | barometer mb |
| 20260505092531 | 57 | 82 | 2.6 | 7.8 | 0.05 | 0.16 | 0.16 | 96 | 1012.9 |
| 20260505092032 | 57 | 89 | 4.3 | 7.8 | 0.06 | 0.16 | 0.16 | 96 | 1012.9 |
| 20260505091530 | 57 | 76 | 4.3 | 6.1 | 0.06 | 0.15 | 0.15 | 95 | 1012.9 |
| 20260505090530 | 57 | 77 | 5.2 | 7.0 | 0.06 | 0.14 | 0.14 | 95 | 1012.8 |
| 20260505090032 | 57 | 78 | 4.3 | 6.1 | 0.06 | 0.13 | 0.13 | 95 | 1012.8 |
| 20260505085531 | 57 | 114 | 2.6 | 5.2 | 0.07 | 0.13 | 0.13 | 95 | 1012.9 |
| 20260505085031 | 57 | 101 | 2.6 | 6.1 | 0.06 | 0.13 | 0.13 | 95 | 1012.9 |
| 20260505084536 | 57 | 84 | 2.6 | 6.1 | 0.07 | 0.13 | 0.13 | 94 | 1012.7 |
| 20260505084030 | 57 | 79 | 4.3 | 5.2 | 0.07 | 0.12 | 0.12 | 94 | 1012.7 |
| 20260505083530 | 57 | 85 | 3.5 | 7.0 | 0.07 | 0.12 | 0.12 | 94 | 1012.7 |
| 20260505083031 | 57 | 92 | 2.6 | 5.2 | 0.07 | 0.11 | 0.11 | 94 | 1012.7 |
| 20260505082533 | 57 | 80 | 1.7 | 2.6 | 0.08 | 0.11 | 0.11 | 94 | 1012.7 |
| 20260505082030 | 57 | 80 | 0.9 | 2.6 | 0.07 | 0.10 | 0.10 | 94 | 1012.6 |
| 20260505081530 | 57 | 113 | 4.3 | 6.1 | 0.06 | 0.09 | 0.09 | 94 | 1012.5 |
| 20260505081030 | 57 | 93 | 2.6 | 6.1 | 0.06 | 0.09 | 0.09 | 94 | 1012.4 |
| 20260505080530 | 57 | 93 | 1.7 | 5.2 | 0.06 | 0.08 | 0.08 | 94 | 1012.4 |
| 20260505075032 | 57 | 91 | 2.6 | 6.1 | 0.06 | 0.06 | 0.06 | 93 | 1012.6 |
| 20260505074530 | 57 | 120 | 2.6 | 4.3 | 0.06 | 0.06 | 0.06 | 93 | 1012.8 |
| 20260505074030 | 57 | 127 | 1.7 | 4.3 | 0.05 | 0.06 | 0.06 | 93 | 1012.8 |
| 20260505073530 | 58 | 128 | 1.7 | 4.3 | 0.04 | 0.05 | 0.05 | 93 | 1012.9 |
| 20260505073030 | 58 | 144 | 1.7 | 2.6 | 0.04 | 0.04 | 0.04 | 92 | 1012.8 |
| 20260505072530 | 58 | 160 | 1.7 | 2.6 | 0.04 | 0.04 | 0.04 | 92 | 1012.8 |
| 20260505072030 | 58 | 171 | 1.7 | 2.6 | 0.03 | 0.03 | 0.03 | 92 | 1012.8 |
| 20260505071530 | 58 | 190 | 1.7 | 2.6 | 0.03 | 0.03 | 0.03 | 91 | 1012.7 |
| 20260505071030 | 58 | 164 | 0.0 | 2.6 | 0.03 | 0.03 | 0.03 | 91 | 1012.7 |
| 20260505070530 | 58 | 168 | 1.7 | 2.6 | 0.02 | 0.02 | 0.02 | 90 | 1012.8 |
| 20260505070030 | 59 | 174 | 1.7 | 2.6 | 0.02 | 0.02 | 0.02 | 91 | 1012.8 |
| 20260505065030 | 59 | 170 | 2.6 | 4.3 | 0.01 | 0.01 | 0.01 | 89 | 1012.8 |
| 20260505064529 | 59 | 184 | 1.7 | 2.6 | 0.01 | 0.01 | 0.01 | 89 | 1012.7 |
| 20260505064030 | 59 | 160 | 1.7 | 2.6 | 0.01 | 0.01 | 0.01 | 88 | 1012.6 |
| 20260505063030 | 60 | 150 | 1.7 | 2.6 | 0.00 | 0.00 | 0.00 | 88 | 1012.4 |
| 20260505062530 | 60 | 163 | 2.6 | 2.6 | 0.00 | 0.00 | 0.00 | 88 | 1012.4 |
| 20260505062030 | 60 | 138 | 2.6 | 4.3 | 0.00 | 0.00 | 0.00 | 88 | 1012.3 |
| 20260505061531 | 59 | 125 | 1.7 | 4.3 | 0.00 | 0.00 | 0.00 | 88 | 1012.2 |
| 20260505061030 | 59 | 113 | 3.5 | 7.0 | 0.00 | 0.00 | 0.00 | 88 | 1012.2 |
| 20260505060531 | 59 | 112 | 0.9 | 7.0 | 0.00 | 0.00 | 0.00 | 88 | 1012.2 |
| 20260505055530 | 59 | 111 | 0.9 | 1.7 | 0.00 | 0.00 | 0.00 | 88 | 1012.1 |
| 20260505054530 | 59 | 68 | 0.0 | 2.6 | 0.00 | 0.00 | 0.00 | 86 | 1011.9 |
| 20260505054046 | 59 | 71 | 2.6 | 2.6 | 0.00 | 0.00 | 0.00 | 85 | 1011.8 |
| 20260505053032 | 58 | 71 | 2.6 | 4.3 | 0.00 | 0.00 | 0.00 | 84 | 1011.8 |
| 20260505052531 | 58 | 80 | 1.7 | 2.6 | 0.00 | 0.00 | 0.00 | 84 | 1011.8 |
| 20260505051530 | 58 | 64 | 1.7 | 4.3 | 0.00 | 0.00 | 0.00 | 83 | 1011.8 |
| 20260505050530 | 58 | 49 | 1.7 | 2.6 | 0.00 | 0.00 | 0.00 | 85 | 1011.8 |
| 20260505041529 | 59 | 84 | 0.0 | 1.7 | 0.00 | 0.00 | 0.00 | 78 | 1011.9 |
| 20260505041030 | 59 | 132 | 0.0 | 0.0 | 0.00 | 0.00 | 0.00 | 76 | 1011.9 |
| 20260505040029 | 60 | 267 | 0.0 | 0.0 | 0.00 | 0.00 | 0.00 | 74 | 1011.9 |
| 20260505035529 | 60 | 267 | 0.0 | 0.9 | 0.00 | 0.00 | 0.00 | 70 | 1011.9 |
| 20260505035029 | 60 | 299 | 0.0 | 0.9 | 0.00 | 0.00 | 0.00 | 70 | 1011.8 |
| 20260505034529 | 60 | 333 | 0.0 | 0.0 | 0.00 | 0.00 | 0.00 | 70 | 1011.8 |
| 20260505033529 | 60 | 336 | 0.0 | 0.9 | 0.00 | 0.00 | 0.00 | 72 | 1011.9 |
| 20260505033030 | 60 | 325 | 0.0 | 0.9 | 0.00 | 0.00 | 0.00 | 72 | 1011.9 |
| 20260505032529 | 60 | 196 | 0.0 | 0.0 | 0.00 | 0.00 | 0.00 | 71 | 1012.0 |
| 20260505032030 | 60 | 196 | 0.0 | 0.0 | 0.00 | 0.00 | 0.00 | 71 | 1012.1 |
| 20260505031029 | 60 | 196 | 0.0 | 2.6 | 0.00 | 0.00 | 0.00 | 70 | 1012.2 |
| 20260505030529 | 60 | 207 | 0.9 | 1.7 | 0.00 | 0.00 | 0.00 | 70 | 1012.3 |
| 20260505030029 | 60 | 216 | 0.9 | 1.7 | 0.00 | 0.00 | 0.00 | 70 | 1012.3 |
| 20260505025531 | 60 | 216 | 0.9 | 2.6 | 0.00 | 0.00 | 0.00 | 69 | 1012.3 |
| 20260505024529 | 60 | 215 | 0.9 | 2.6 | 0.00 | 0.00 | 0.00 | 70 | 1012.3 |
| 20260505024029 | 60 | 211 | 1.7 | 2.6 | 0.00 | 0.00 | 0.00 | 71 | 1012.3 |
| 20260505023530 | 59 | 171 | 0.0 | 0.9 | 0.00 | 0.00 | 0.00 | 71 | 1012.3 |
| 20260505022529 | 59 | 199 | 1.7 | 2.6 | 0.00 | 0.00 | 0.00 | 72 | 1012.4 |
| 20260505022029 | 60 | 105 | 0.0 | 0.0 | 0.00 | 0.00 | 0.00 | 70 | 1012.3 |
| 20260505021529 | 60 | 105 | 0.9 | 2.6 | 0.00 | 0.00 | 0.00 | 69 | 1012.3 |
| 20260505021030 | 60 | 106 | 1.7 | 2.6 | 0.00 | 0.00 | 0.00 | 68 | 1012.4 |
| 20260505020030 | 60 | 60 | 0.0 | 0.0 | 0.00 | 0.00 | 0.00 | 69 | 1012.1 |
| 20260505015529 | 60 | 60 | 0.0 | 0.0 | 0.00 | 0.00 | 0.00 | 70 | 1012.0 |
| 20260505015030 | 60 | 60 | 0.0 | 0.0 | 0.00 | 0.00 | 0.00 | 70 | 1012.3 |
| 20260505014029 | 60 | 60 | 0.0 | 0.0 | 0.00 | 0.00 | 0.00 | 69 | 1012.4 |
| 20260505013530 | 60 | 60 | 0.0 | 0.0 | 0.00 | 0.00 | 0.00 | 70 | 1012.5 |
| 20260505013029 | 60 | 60 | 0.0 | 0.0 | 0.00 | 0.00 | 0.00 | 70 | 1012.6 |
| 20260505012529 | 60 | 60 | 0.0 | 0.0 | 0.00 | 0.00 | 0.00 | 70 | 1012.8 |
| 20260505012030 | 60 | 60 | 0.0 | 0.0 | 0.00 | 0.00 | 0.00 | 69 | 1012.8 |
| 20260505011529 | 60 | 60 | 0.0 | 0.0 | 0.00 | 0.00 | 0.00 | 69 | 1012.9 |
| 20260505011044 | 60 | 60 | 0.0 | 0.0 | 0.00 | 0.00 | 0.00 | 69 | 1012.9 |
| 20260505010529 | 60 | 60 | 0.0 | 0.0 | 0.00 | 0.00 | 0.00 | 69 | 1013.0 |
| 20260505010029 | 60 | 60 | 0.0 | 0.0 | 0.00 | 0.00 | 0.00 | 69 | 1013.1 |
| 20260505005536 | 60 | 60 | 0.0 | 0.0 | 0.00 | 0.00 | 0.00 | 68 | 1013.2 |
| 20260505005030 | 60 | 60 | 0.0 | 0.0 | 0.00 | 0.00 | 0.00 | 69 | 1013.2 |
| 20260505004529 | 60 | 60 | 0.0 | 0.0 | 0.00 | 0.00 | 0.00 | 68 | 1013.3 |
| 20260505004029 | 60 | 60 | 0.0 | 0.0 | 0.00 | 0.00 | 0.00 | 68 | 1013.3 |
| 20260505003529 | 60 | 60 | 0.0 | 0.9 | 0.00 | 0.00 | 0.00 | 67 | 1013.3 |
| 20260505002031 | 61 | 11 | 0.0 | 0.0 | 0.00 | 0.00 | 0.00 | 65 | 1013.5 |
| 20260505001529 | 61 | 11 | 0.0 | 0.0 | 0.00 | 0.00 | 0.00 | 65 | 1013.5 |
| 20260505001044 | 61 | 341 | 0.9 | 5.2 | 0.00 | 0.00 | 0.00 | 64 | 1013.5 |
| 20260505000028 | 61 | 293 | 4.3 | 6.1 | 0.00 | 0.00 | 0.00 | 64 | 1013.5 |
| 20260504235529 | 61 | 283 | 5.2 | 7.8 | 0.00 | 0.00 | 0.00 | 63 | 1013.5 |
| 20260504235028 | 61 | 294 | 5.2 | 8.7 | 0.00 | 0.00 | 0.00 | 64 | 1013.5 |
| 20260504233529 | 61 | 270 | 4.3 | 6.1 | 0.00 | 0.00 | 0.00 | 65 | 1013.7 |
| 20260504231529 | 60 | 272 | 2.6 | 6.1 | 0.00 | 0.00 | 0.00 | 65 | 1013.9 |
| 20260504231029 | 60 | 280 | 4.3 | 5.2 | 0.00 | 0.00 | 0.00 | 65 | 1014.0 |
| 20260504230528 | 60 | 275 | 3.5 | 5.2 | 0.00 | 0.00 | 0.00 | 64 | 1014.0 |
| 20260504225528 | 61 | 292 | 3.5 | 4.3 | 0.00 | 0.00 | 0.00 | 64 | 1014.1 |
| 20260504224529 | 61 | 301 | 2.6 | 4.3 | 0.00 | 0.00 | 0.00 | 64 | 1014.2 |
| 20260504224029 | 61 | 297 | 2.6 | 5.2 | 0.00 | 0.00 | 0.00 | 63 | 1014.3 |
| 20260504222529 | 60 | 280 | 4.3 | 6.1 | 0.00 | 0.00 | 0.00 | 65 | 1014.4 |
| 20260504222028 | 60 | 272 | 2.6 | 4.3 | 0.00 | 0.00 | 0.00 | 65 | 1014.5 |
| 20260504221528 | 60 | 271 | 2.6 | 4.3 | 0.00 | 0.00 | 0.00 | 65 | 1014.5 |
| 20260504220029 | 59 | 255 | 2.6 | 4.3 | 0.00 | 0.00 | 0.00 | 66 | 1014.5 |
| 20260504215528 | 60 | 246 | 3.5 | 4.3 | 0.00 | 0.00 | 0.00 | 67 | 1014.5 |
| 20260504214528 | 61 | 59 | 0.0 | 0.0 | 0.00 | 0.00 | 0.00 | 67 | 1014.4 |
| 20260504214028 | 61 | 59 | 0.0 | 0.9 | 0.00 | 0.00 | 0.00 | 67 | 1014.4 |
| 20260504213529 | 62 | 59 | 0.0 | 0.0 | 0.00 | 0.00 | 0.00 | 67 | 1014.4 |
| 20260504213028 | 62 | 59 | 0.0 | 0.0 | 0.00 | 0.00 | 0.00 | 67 | 1014.5 |
| 20260504212528 | 62 | 59 | 0.0 | 0.0 | 0.00 | 0.00 | 0.00 | 67 | 1014.5 |
| 20260504212029 | 62 | 59 | 0.0 | 0.0 | 0.00 | 0.00 | 0.00 | 66 | 1014.5 |
| 20260504211528 | 62 | 59 | 0.0 | 1.7 | 0.00 | 0.00 | 0.00 | 66 | 1014.5 |
| 20260504211028 | 62 | 98 | 0.9 | 1.7 | 0.00 | 0.00 | 0.00 | 65 | 1014.6 |
| 20260504205531 | 62 | 119 | 4.3 | 6.1 | 0.00 | 0.00 | 0.00 | 63 | 1014.7 |
| 20260504205028 | 63 | 121 | 0.9 | 2.6 | 0.00 | 0.00 | 0.00 | 61 | 1014.6 |
| 20260504204528 | 63 | 298 | 0.0 | 0.0 | 0.00 | 0.00 | 0.00 | 59 | 1014.5 |
| 20260504204028 | 64 | 298 | 0.0 | 0.0 | 0.00 | 0.00 | 0.00 | 58 | 1014.4 |
| 20260504203529 | 64 | 298 | 0.0 | 0.0 | 0.00 | 0.00 | 0.00 | 57 | 1014.5 |
| 20260504203028 | 65 | 298 | 0.0 | 0.9 | 0.00 | 0.00 | 0.00 | 56 | 1014.4 |
| 20260504202531 | 65 | 299 | 0.0 | 0.9 | 0.00 | 0.00 | 0.00 | 56 | 1014.4 |
| 20260504201528 | 65 | 303 | 1.7 | 2.6 | 0.00 | 0.00 | 0.00 | 55 | 1014.3 |
| 20260504201028 | 65 | 295 | 0.9 | 2.6 | 0.00 | 0.00 | 0.00 | 56 | 1014.4 |
| 20260504200528 | 65 | 302 | 1.7 | 2.6 | 0.00 | 0.00 | 0.00 | 55 | 1014.3 |
| 20260504200031 | 66 | 294 | 0.9 | 1.7 | 0.00 | 0.00 | 0.00 | 54 | 1014.3 |
| 20260504195528 | 66 | 311 | 1.7 | 2.6 | 0.00 | 0.00 | 0.00 | 54 | 1014.2 |
| 20260504195028 | 66 | 316 | 1.7 | 2.6 | 0.00 | 0.00 | 0.00 | 54 | 1014.2 |
| 20260504194027 | 67 | 315 | 1.7 | 2.6 | 0.00 | 0.00 | 0.00 | 53 | 1014.2 |
| 20260504193528 | 67 | 296 | 1.7 | 2.6 | 0.00 | 0.00 | 0.00 | 54 | 1014.2 |
| 20260504192530 | 67 | 294 | 0.9 | 2.6 | 0.00 | 0.00 | 0.00 | 53 | 1014.1 |
| 20260504191529 | 68 | 307 | 0.9 | 1.7 | 0.00 | 0.00 | 0.00 | 52 | 1014.0 |
| 20260504191029 | 68 | 313 | 0.9 | 2.6 | 0.00 | 0.00 | 0.00 | 52 | 1014.0 |
| 20260504185536 | 69 | 315 | 0.9 | 2.6 | 0.00 | 0.00 | 0.00 | 50 | 1013.9 |
| 20260504183528 | 70 | 293 | 1.7 | 2.6 | 0.00 | 0.00 | 0.00 | 49 | 1013.9 |
| 20260504181027 | 72 | 310 | 1.7 | 2.6 | 0.00 | 0.00 | 0.00 | 46 | 1013.8 |
| 20260504180042 | 73 | 313 | 1.7 | 2.6 | 0.00 | 0.00 | 0.00 | 45 | 1013.9 |
| 20260504175027 | 74 | 298 | 1.7 | 2.6 | 0.00 | 0.00 | 0.00 | 44 | 1013.8 |
| 20260504174530 | 74 | 307 | 2.6 | 4.3 | 0.00 | 0.00 | 0.00 | 43 | 1013.8 |
| 20260504174035 | 75 | 308 | 1.7 | 5.2 | 0.00 | 0.00 | 0.00 | 42 | 1013.8 |
| 20260504173529 | 75 | 305 | 2.6 | 5.2 | 0.00 | 0.00 | 0.00 | 42 | 1013.7 |
| 20260504173035 | 75 | 311 | 4.3 | 5.2 | 0.00 | 0.00 | 0.00 | 41 | 1013.8 |
| 20260504172527 | 76 | 310 | 3.5 | 6.1 | 0.00 | 0.00 | 0.00 | 40 | 1013.7 |
| 20260504172028 | 76 | 306 | 4.3 | 7.0 | 0.00 | 0.00 | 0.00 | 39 | 1013.7 |
| 20260504171527 | 77 | 295 | 4.3 | 7.0 | 0.00 | 0.00 | 0.00 | 39 | 1013.7 |
| 20260504170527 | 77 | 308 | 4.3 | 7.0 | 0.00 | 0.00 | 0.00 | 37 | 1013.7 |
| 20260504150528 | 78 | 34 | 1.7 | 2.6 | 0.00 | 0.00 | 0.00 | 37 | 1014.3 |
| 20260504140543 | 78 | 181 | 1.7 | 5.2 | 0.00 | 0.00 | 0.00 | 38 | 1014.6 |
| 20260504130527 | 80 | 240 | 4.3 | 7.8 | 0.00 | 0.00 | 0.00 | 37 | 1015.1 |
| 20260504110526 | 77 | 298 | 1.7 | 7.0 | 0.00 | 0.00 | 0.00 | 37 | 1016.0 |
| 20260504100526 | 75 | 249 | 2.6 | 6.1 | 0.00 | 0.00 | 0.00 | 42 | 1016.6 |